Home   Weather   Saint-Étienne   Past weeks

Flag for France Past Weather in Saint-Étienne, Rhône-Alpes, France — Yesterday and Last 2 Weeks

Now
61 °F

Clear.


Feels Like: 61 °F
Forecast: 56 / 79 °F
Wind: 2 mph from South

Location: St-Etienne Boutheon

Current Time: Aug 31, 2016 at 2:39:10 AM

Latest Report: Aug 31, 2016 at 2:00 AM


Visibility: 10 mi

Pressure: 30.12 "Hg (28.29 "Hg at 529m altitude)

Humidity: 77%

Dew Point: 54 °F

Location of Saint-ÉtienneLocation

Past Weather in Saint-Étienne — Graph

°F

Saint-Étienne Temperature Yesterday

Maximum temperature yesterday: 79 °F (at 5:00 PM)
Minimum temperature yesterday: 54 °F (at 6:30 AM)
Average temperature yesterday: 66 °F

High & Low Weather Summary for the Past Weeks

 TemperatureHumidityPressure
High95 °F (Aug 25, 3:30 PM)100% (Aug 19, 5:00 AM)30.39 "Hg (Aug 19, 5:00 AM)
Low46 °F (Aug 22, 6:30 AM)21% (Aug 27, 6:00 PM)29.86 "Hg (Aug 17, 5:00 PM)
Average71 °F61%30.09 "Hg
* Reported Aug 16 1:00 AM — Aug 31 1:30 AM, Saint-Étienne, Weather by CustomWeather, © 2016

Note: Actual official high and low records may vary slightly from our data, if they occured in-between our weather recording intervals... More about our weather records

Advertising

Saint-Étienne Weather History for the Previous 24 Hours

Scroll right to see more
 ConditionsComfort  
Time TempWeatherWind HumidityBarometerVisibility
1:30 AM
Wed, Aug 31
61 °FClear.2 mph83%30.15 "Hg10 mi
1:00 AM63 °FClear.No wind77%30.15 "Hg10 mi
12:30 AM63 °FClear.2 mph77%30.15 "Hg10 mi
12:00 AM63 °FClear.3 mph77%30.15 "Hg10 mi
11:30 PM
Tue, Aug 30
64 °FClear.2 mph73%30.15 "Hg10 mi
11:00 PM64 °FClear.2 mph73%30.15 "Hg10 mi
10:30 PM66 °FClear.3 mph68%30.12 "Hg10 mi
10:00 PM66 °FClear.No wind68%30.12 "Hg10 mi
9:30 PM68 °FClear.No wind69%30.12 "Hg10 mi
9:00 PM70 °FSunny.3 mph64%30.12 "Hg10 mi
8:30 PM73 °FSunny.2 mph53%30.12 "Hg10 mi
8:00 PM75 °FPassing clouds.3 mph50%30.12 "HgN/A
7:30 PM77 °FSunny.3 mph47%30.12 "Hg10 mi
7:00 PM79 °FPassing clouds.6 mph45%30.12 "HgN/A
6:30 PM79 °FPassing clouds.5 mph45%30.12 "HgN/A
6:00 PM77 °FScattered clouds.5 mph51%30.12 "HgN/A
5:30 PM77 °FScattered clouds.5 mph47%30.12 "HgN/A
5:00 PM79 °FScattered clouds.5 mph48%30.12 "HgN/A
4:30 PM77 °FScattered clouds.7 mph51%30.12 "HgN/A
4:00 PM75 °FPartly sunny.7 mph54%30.12 "HgN/A
3:00 PM73 °FPartly sunny.7 mph57%30.15 "HgN/A
2:30 PM73 °FPartly sunny.5 mph57%30.15 "HgN/A
2:07 PM73 °FPartly sunny.6 mph57%30.15 "HgN/A
1:30 PM73 °FPartly sunny.5 mph57%30.18 "HgN/A
1:00 PM72 °FPartly sunny.3 mph61%30.18 "HgN/A
12:30 PM70 °FPartly sunny.3 mph60%30.18 "HgN/A
12:00 PM68 °FPartly sunny.3 mph64%30.18 "HgN/A
11:30 AM68 °FScattered clouds.5 mph64%30.18 "HgN/A
11:00 AM66 °FPassing clouds.3 mph68%30.18 "HgN/A
10:30 AM66 °FPassing clouds.6 mph73%30.18 "HgN/A
10:00 AM63 °FPassing clouds.6 mph77%30.21 "HgN/A
9:30 AM61 °FPassing clouds.5 mph83%30.21 "HgN/A
9:00 AM57 °FPassing clouds.3 mph94%30.21 "HgN/A
8:30 AM55 °FPassing clouds.No wind100%30.18 "HgN/A
8:00 AM54 °FPassing clouds.No wind94%30.18 "HgN/A
7:30 AM54 °FPassing clouds.No wind88%30.18 "HgN/A
7:00 AM54 °FPassing clouds.1 mph88%30.18 "HgN/A
6:30 AM54 °FPassing clouds.No wind88%30.18 "HgN/A
6:00 AM55 °FPassing clouds.No wind88%30.18 "HgN/A
5:30 AM55 °FPassing clouds.1 mph88%30.18 "HgN/A
5:00 AM57 °FPassing clouds.1 mph82%30.18 "HgN/A
4:30 AM57 °FPassing clouds.No wind88%30.18 "HgN/A
4:00 AM59 °FPassing clouds.3 mph82%30.18 "HgN/A
3:30 AM59 °FOvercast.3 mph82%30.18 "HgN/A
3:00 AM59 °FOvercast.3 mph82%30.21 "HgN/A
2:30 AM59 °FOvercast.2 mph82%30.21 "HgN/A
2:00 AM59 °FPassing clouds.2 mph82%30.21 "HgN/A
Weather by CustomWeather, © 2016

See weather overviewHow to use our weather pages